LU9FW-5 Weather Reports


time (UTC)temp
C
wind
direction
speed
KPH
gust
KPH
rain 1hr
cm
rain 24hr
cm
rain mn
cm
humidity
%
barometer
mb
20260508195305 14 203 25.7 43.5 0.00 0.00 0.00 26 1003.1
20260508195033 14 225 33.8 43.5 0.00 0.00 0.00 26 1002.9
20260508194924 15 203 32.2 43.5 0.00 0.00 0.00 26 1002.8
20260508194824 15 248 33.8 43.5 0.00 0.00 0.00 27 1002.8
20260508194551 15 225 25.7 38.6 0.00 0.00 0.00 26 1002.8
20260508194448 15 180 24.1 38.6 0.00 0.00 0.00 27 1002.9
20260508194340 15 180 25.7 38.6 0.00 0.00 0.00 26 1002.8
20260508194255 14 203 22.5 38.6 0.00 0.00 0.00 25 1003.0
20260508194110 14 180 25.7 38.6 0.00 0.00 0.00 27 1002.8
20260508194001 14 203 30.6 38.6 0.00 0.00 0.00 25 1003.0
20260508193851 14 225 30.6 38.6 0.00 0.00 0.00 25 1002.9
20260508193743 14 225 27.4 38.6 0.00 0.00 0.00 25 1003.0
20260508193633 14 248 22.5 38.6 0.00 0.00 0.00 29 1002.9
20260508193523 14 203 24.1 38.6 0.00 0.00 0.00 28 1002.8
20260508193412 13 203 22.5 38.6 0.00 0.00 0.00 30 1003.0
20260508193302 13 225 27.4 38.6 0.00 0.00 0.00 28 1002.7
20260508193143 13 180 20.9 38.6 0.00 0.00 0.00 29 1002.7
20260508193039 13 225 24.1 38.6 0.00 0.00 0.00 29 1002.8
20260508192930 13 225 24.1 38.6 0.00 0.00 0.00 29 1002.9
20260508192820 13 203 24.1 38.6 0.00 0.00 0.00 29 1002.8
20260508192701 13 203 24.1 40.2 0.00 0.00 0.00 29 1002.8
20260508192452 14 203 24.1 40.2 0.00 0.00 0.00 28 1003.0
20260508192342 14 203 24.1 40.2 0.00 0.00 0.00 27 1003.0
20260508192223 14 203 24.1 40.2 0.00 0.00 0.00 27 1002.9
20260508192123 14 225 24.1 40.2 0.00 0.00 0.00 27 1002.9
20260508192009 14 225 27.4 40.2 0.00 0.00 0.00 28 1003.0
20260508191901 13 225 25.7 40.2 0.00 0.00 0.00 27 1002.7
20260508191742 13 225 30.6 40.2 0.00 0.00 0.00 28 1002.9
20260508191634 13 203 29.0 40.2 0.00 0.00 0.00 27 1003.0
20260508191524 13 225 30.6 40.2 0.00 0.00 0.00 27 1003.0
20260508191416 13 225 32.2 40.2 0.00 0.00 0.00 28 1002.9
20260508191258 14 225 29.0 38.6 0.00 0.00 0.00 28 1003.0
20260508191149 14 225 27.4 38.6 0.00 0.00 0.00 29 1003.1
20260508191043 14 225 30.6 38.6 0.00 0.00 0.00 28 1002.9
20260508190932 14 180 29.0 38.6 0.00 0.00 0.00 29 1003.1
20260508190816 14 203 27.4 37.0 0.00 0.00 0.00 29 1002.8
20260508190713 13 203 22.5 35.4 0.00 0.00 0.00 31 1003.3
20260508190605 13 225 19.3 35.4 0.00 0.00 0.00 31 1002.9
20260508190458 13 225 20.9 35.4 0.00 0.00 0.00 31 1003.0
20260508190338 13 225 22.5 35.4 0.00 0.00 0.00 31 1003.1
20260508190229 13 203 24.1 38.6 0.00 0.00 0.00 31 1003.1
20260508190121 13 225 24.1 38.6 0.00 0.00 0.00 31 1003.2
20260508185852 13 225 27.4 43.5 0.00 0.00 0.00 31 1003.0
20260508185742 13 203 29.0 43.5 0.00 0.00 0.00 31 1003.2
20260508185641 13 203 27.4 43.5 0.00 0.00 0.00 30 1003.2
20260508185531 13 225 27.4 43.5 0.00 0.00 0.00 30 1003.1
20260508185408 13 225 25.7 43.5 0.00 0.00 0.00 30 1003.2
20260508185300 13 203 25.7 43.5 0.00 0.00 0.00 30 1003.1
20260508185159 13 225 29.0 43.5 0.00 0.00 0.00 31 1003.0
20260508185046 14 225 25.7 43.5 0.00 0.00 0.00 31 1003.3
20260508184928 14 225 29.0 43.5 0.00 0.00 0.00 31 1003.1
20260508184818 14 225 29.0 43.5 0.00 0.00 0.00 31 1003.0
20260508184716 14 225 27.4 38.6 0.00 0.00 0.00 32 1003.0
20260508184606 14 225 27.4 40.2 0.00 0.00 0.00 31 1003.0
20260508184338 13 203 20.9 40.2 0.00 0.00 0.00 33 1003.0
20260508184229 13 180 20.9 40.2 0.00 0.00 0.00 33 1003.1
20260508184122 13 225 22.5 40.2 0.00 0.00 0.00 33 1003.3
20260508184010 13 203 19.3 40.2 0.00 0.00 0.00 33 1003.3
20260508183901 13 203 24.1 40.2 0.00 0.00 0.00 34 1003.3
20260508183753 13 225 27.4 40.2 0.00 0.00 0.00 33 1003.1
20260508183640 13 248 32.2 40.2 0.00 0.00 0.00 33 1003.2
20260508183523 13 225 32.2 37.0 0.00 0.00 0.00 33 1003.2
20260508183312 14 203 24.1 35.4 0.00 0.00 0.00 32 1003.2
20260508183159 14 225 25.7 35.4 0.00 0.00 0.00 31 1003.2
20260508183043 14 225 24.1 33.8 0.00 0.00 0.00 31 1003.4
20260508182936 13 203 17.7 33.8 0.00 0.00 0.00 33 1003.2
20260508182826 13 203 19.3 33.8 0.00 0.00 0.00 33 1003.2
20260508182718 13 203 25.7 33.8 0.00 0.00 0.00 33 1003.3
20260508182557 13 203 24.1 37.0 0.00 0.00 0.00 33 1003.4
20260508182449 13 203 27.4 37.0 0.00 0.00 0.00 33 1003.2
20260508182347 13 225 27.4 37.0 0.00 0.00 0.00 33 1003.3
20260508182237 13 203 22.5 37.0 0.00 0.00 0.00 35 1003.4
20260508182117 13 180 24.1 37.0 0.00 0.00 0.00 33 1003.5
20260508182007 13 203 24.1 40.2 0.00 0.00 0.00 33 1003.2
20260508181907 13 203 25.7 40.2 0.00 0.00 0.00 34 1003.4
20260508181754 13 225 24.1 40.2 0.00 0.00 0.00 34 1003.4
20260508181634 13 203 29.0 40.2 0.00 0.00 0.00 34 1003.3
20260508181527 14 203 25.7 43.5 0.00 0.00 0.00 33 1003.5
20260508181418 14 225 24.1 43.5 0.00 0.00 0.00 33 1003.4
20260508181314 14 225 25.7 43.5 0.00 0.00 0.00 33 1003.4
20260508181156 14 180 27.4 51.5 0.00 0.00 0.00 32 1003.2
20260508181053 14 225 27.4 51.5 0.00 0.00 0.00 32 1003.4
20260508181004 14 203 32.2 51.5 0.00 0.00 0.00 32 1003.3
20260508180936 14 203 25.7 51.5 0.00 0.00 0.00 32 1003.5
20260508180709 14 203 27.4 51.5 0.00 0.00 0.00 32 1003.3
20260508180607 14 225 27.4 51.5 0.00 0.00 0.00 31 1003.3
20260508180456 14 225 30.6 51.5 0.00 0.00 0.00 32 1003.4
20260508180346 14 203 33.8 51.5 0.00 0.00 0.00 32 1003.5
20260508180227 14 225 37.0 51.5 0.00 0.00 0.00 32 1003.4
20260508180126 14 225 27.4 40.2 0.00 0.00 0.00 33 1003.1
20260508180016 14 225 24.1 40.2 0.00 0.00 0.00 33 1003.4
20260508175930 14 225 25.7 40.2 0.00 0.00 0.00 33 1003.5
20260508175744 13 203 24.1 40.2 0.00 0.00 0.00 34 1003.4
20260508175643 13 203 27.4 40.2 0.00 0.00 0.00 33 1003.3
20260508175532 13 203 27.4 40.2 0.00 0.00 0.00 33 1003.6
20260508175422 13 225 30.6 40.2 0.00 0.00 0.00 34 1003.8
20260508175306 13 203 27.4 40.2 0.00 0.00 0.00 35 1003.7
20260508175155 14 203 32.2 40.2 0.00 0.00 0.00 33 1003.6
20260508175051 14 225 27.4 37.0 0.00 0.00 0.00 33 1003.5
20260508174941 14 203 25.7 43.5 0.00 0.00 0.00 34 1003.5
20260508174825 14 203 27.4 43.5 0.00 0.00 0.00 33 1003.7
20260508174715 13 203 22.5 43.5 0.00 0.00 0.00 34 1003.9
20260508174607 13 203 24.1 43.5 0.00 0.00 0.00 34 1003.7
20260508174458 13 203 27.4 43.5 0.00 0.00 0.00 34 1003.7
20260508174345 14 203 29.0 43.5 0.00 0.00 0.00 34 1003.8
20260508174124 14 225 27.4 43.5 0.00 0.00 0.00 33 1003.9
20260508174018 14 180 27.4 40.2 0.00 0.00 0.00 33 1003.8
20260508173902 14 203 27.4 40.2 0.00 0.00 0.00 33 1003.8
20260508173752 14 180 27.4 40.2 0.00 0.00 0.00 35 1003.8
20260508173642 13 203 27.4 40.2 0.00 0.00 0.00 34 1003.7
20260508173533 13 225 19.3 40.2 0.00 0.00 0.00 36 1003.7
20260508173422 13 225 27.4 40.2 0.00 0.00 0.00 35 1003.8
20260508173311 13 225 24.1 40.2 0.00 0.00 0.00 35 1003.8
20260508173205 14 225 24.1 40.2 0.00 0.00 0.00 35 1003.7
20260508173056 14 225 29.0 40.2 0.00 0.00 0.00 34 1003.9
20260508172940 14 203 29.0 38.6 0.00 0.00 0.00 34 1003.7
20260508172827 14 248 22.5 38.6 0.00 0.00 0.00 35 1003.9
20260508172727 14 225 27.4 38.6 0.00 0.00 0.00 35 1003.9
20260508172609 14 203 24.1 38.6 0.00 0.00 0.00 34 1003.9
20260508172453 14 225 27.4 40.2 0.00 0.00 0.00 35 1003.8
20260508172345 15 203 27.4 40.2 0.00 0.00 0.00 35 1004.0
20260508172242 15 225 24.1 40.2 0.00 0.00 0.00 35 1003.7
20260508172128 14 225 24.1 40.2 0.00 0.00 0.00 35 1004.0
20260508172010 14 203 27.4 43.5 0.00 0.00 0.00 36 1004.0
20260508171902 14 225 27.4 49.9 0.00 0.00 0.00 35 1003.9
20260508171753 14 203 27.4 49.9 0.00 0.00 0.00 36 1003.9
20260508171532 14 225 32.2 49.9 0.00 0.00 0.00 34 1003.9
20260508171424 14 225 24.1 49.9 0.00 0.00 0.00 35 1004.0
20260508171312 14 180 24.1 49.9 0.00 0.00 0.00 35 1003.9
20260508171203 14 225 29.0 49.9 0.00 0.00 0.00 35 1003.8
20260508171049 14 203 29.0 49.9 0.00 0.00 0.00 35 1003.9
20260508170939 15 225 33.8 49.9 0.00 0.00 0.00 34 1003.9
20260508170831 15 225 22.5 38.6 0.00 0.00 0.00 37 1003.9
20260508170723 14 203 24.1 38.6 0.00 0.00 0.00 36 1003.9
20260508170605 14 203 25.7 40.2 0.00 0.00 0.00 36 1003.9
20260508170457 14 203 20.9 40.2 0.00 0.00 0.00 36 1003.9
20260508170349 14 225 25.7 40.2 0.00 0.00 0.00 35 1003.8
20260508170240 14 203 27.4 40.2 0.00 0.00 0.00 36 1003.8
20260508170127 14 225 27.4 40.2 0.00 0.00 0.00 35 1004.0
20260508170030 14 203 33.8 40.2 0.00 0.00 0.00 34 1004.1
20260508165911 14 203 29.0 40.2 0.00 0.00 0.00 35 1003.9
20260508165801 14 203 27.4 40.2 0.00 0.00 0.00 36 1003.9
20260508165642 14 225 33.8 40.2 0.00 0.00 0.00 35 1003.8
20260508165532 13 225 25.7 35.4 0.00 0.00 0.00 36 1003.7
20260508165431 13 225 27.4 35.4 0.00 0.00 0.00 37 1003.8
20260508165315 13 203 25.7 33.8 0.00 0.00 0.00 37 1003.9
20260508165157 13 180 27.4 33.8 0.00 0.00 0.00 37 1004.0
20260508164942 13 180 24.1 33.8 0.00 0.00 0.00 38 1004.0
20260508164834 13 158 24.1 33.8 0.00 0.00 0.00 37 1004.0
20260508164715 14 203 24.1 37.0 0.00 0.00 0.00 38 1004.2
20260508164607 14 225 25.7 37.0 0.00 0.00 0.00 37 1004.1
20260508164504 13 225 20.9 37.0 0.00 0.00 0.00 39 1004.2
20260508164352 13 180 22.5 37.0 0.00 0.00 0.00 38 1004.1
20260508164239 13 203 25.7 37.0 0.00 0.00 0.00 37 1004.2
20260508164128 13 203 20.9 37.0 0.00 0.00 0.00 38 1004.0
20260508164017 13 225 19.3 38.6 0.00 0.00 0.00 39 1004.2
20260508163909 13 203 24.1 38.6 0.00 0.00 0.00 38 1004.2
20260508163752 13 180 25.7 38.6 0.00 0.00 0.00 38 1004.2
20260508163644 13 225 25.7 38.6 0.00 0.00 0.00 39 1004.3
20260508163542 13 225 24.1 38.6 0.00 0.00 0.00 38 1004.3
20260508163432 13 203 27.4 38.6 0.00 0.00 0.00 37 1004.3
20260508163314 13 203 25.7 38.6 0.00 0.00 0.00 38 1004.2
20260508163231 13 203 25.7 38.6 0.00 0.00 0.00 38 1004.2
20260508163146 13 203 29.0 43.5 0.00 0.00 0.00 37 1004.3
20260508162948 13 203 24.1 43.5 0.00 0.00 0.00 39 1004.3
20260508162834 13 225 30.6 43.5 0.00 0.00 0.00 38 1004.4
20260508162723 13 203 33.8 43.5 0.00 0.00 0.00 38 1004.4
20260508162613 13 203 32.2 43.5 0.00 0.00 0.00 37 1004.4
20260508162346 13 203 20.9 43.5 0.00 0.00 0.00 40 1004.4
20260508162246 13 203 25.7 43.5 0.00 0.00 0.00 39 1004.3
20260508162143 13 180 32.2 43.5 0.00 0.00 0.00 38 1004.4
20260508162115 13 203 24.1 38.6 0.00 0.00 0.00 38 1004.4
20260508161905 13 203 22.5 38.6 0.00 0.00 0.00 39 1004.5
20260508161757 13 225 22.5 38.6 0.00 0.00 0.00 40 1004.5
20260508161648 13 203 24.1 38.6 0.00 0.00 0.00 39 1004.4
20260508161546 13 203 24.1 38.6 0.00 0.00 0.00 40 1004.3
20260508161425 13 203 27.4 38.6 0.00 0.00 0.00 40 1004.4
20260508161316 13 203 27.4 38.6 0.00 0.00 0.00 39 1004.4
20260508161208 13 225 27.4 38.6 0.00 0.00 0.00 39 1004.5
20260508161114 13 203 30.6 38.6 0.00 0.00 0.00 38 1004.5
20260508161047 13 180 24.1 35.4 0.00 0.00 0.00 39 1004.6
20260508160835 13 203 19.3 35.4 0.00 0.00 0.00 40 1004.5
20260508160724 13 203 20.9 35.4 0.00 0.00 0.00 40 1004.6
20260508160621 13 225 25.7 35.4 0.00 0.00 0.00 39 1004.5
20260508160503 13 225 24.1 32.2 0.00 0.00 0.00 40 1004.5
20260508160353 13 225 24.1 33.8 0.00 0.00 0.00 39 1004.4
20260508160243 13 203 17.7 35.4 0.00 0.00 0.00 41 1004.6
20260508160023 13 203 27.4 35.4 0.00 0.00 0.00 39 1004.6
20260508155804 12 203 24.1 35.4 0.00 0.00 0.00 41 1004.7
20260508155655 12 203 20.9 35.4 0.00 0.00 0.00 42 1004.8
20260508155539 12 203 22.5 35.4 0.00 0.00 0.00 43 1004.7
20260508155436 12 180 24.1 35.4 0.00 0.00 0.00 42 1004.8
20260508155324 12 225 29.0 35.4 0.00 0.00 0.00 42 1004.9
20260508155213 12 180 24.1 38.6 0.00 0.00 0.00 42 1004.8
20260508155057 12 180 24.1 43.5 0.00 0.00 0.00 42 1004.8
20260508154950 12 203 24.1 43.5 0.00 0.00 0.00 43 1004.8
20260508154838 11 203 24.1 43.5 0.00 0.00 0.00 43 1004.7
20260508154729 11 225 25.7 43.5 0.00 0.00 0.00 42 1004.8
20260508154610 11 180 22.5 43.5 0.00 0.00 0.00 43 1004.8
20260508154527 11 225 19.3 43.5 0.00 0.00 0.00 43 1004.7
20260508154459 12 225 24.1 43.5 0.00 0.00 0.00 41 1004.9
20260508154247 12 203 29.0 43.5 0.00 0.00 0.00 42 1004.9
20260508154128 12 203 33.8 43.5 0.00 0.00 0.00 41 1004.9
20260508154024 12 203 29.0 38.6 0.00 0.00 0.00 41 1004.9
20260508153913 12 203 27.4 38.6 0.00 0.00 0.00 42 1004.9
20260508153811 12 180 27.4 38.6 0.00 0.00 0.00 43 1004.9
20260508153647 12 180 25.7 38.6 0.00 0.00 0.00 42 1004.7
20260508153539 12 180 27.4 38.6 0.00 0.00 0.00 42 1005.0
20260508153431 12 203 25.7 38.6 0.00 0.00 0.00 42 1004.9
20260508153207 12 203 24.1 37.0 0.00 0.00 0.00 42 1005.1
20260508153059 11 203 25.7 37.0 0.00 0.00 0.00 43 1004.9
20260508152950 11 203 19.3 37.0 0.00 0.00 0.00 42 1005.0
20260508152842 11 225 24.1 37.0 0.00 0.00 0.00 44 1005.1
20260508152723 11 225 24.1 37.0 0.00 0.00 0.00 43 1005.1
20260508152614 11 225 24.1 37.0 0.00 0.00 0.00 44 1005.1
20260508152510 11 203 27.4 37.0 0.00 0.00 0.00 44 1005.1
20260508152403 12 203 29.0 37.0 0.00 0.00 0.00 42 1005.0
20260508152243 12 225 24.1 37.0 0.00 0.00 0.00 42 1005.1
20260508152134 12 203 27.4 38.6 0.00 0.00 0.00 43 1005.0
20260508152032 12 203 22.5 40.2 0.00 0.00 0.00 43 1005.0
20260508151924 11 203 24.1 40.2 0.00 0.00 0.00 43 1005.1
20260508151805 11 225 24.1 40.2 0.00 0.00 0.00 44 1005.1
20260508151653 11 225 27.4 40.2 0.00 0.00 0.00 43 1005.3
20260508151544 11 225 27.4 40.2 0.00 0.00 0.00 43 1005.1
20260508151435 11 203 25.7 40.2 0.00 0.00 0.00 43 1005.2
20260508151325 12 158 27.4 40.2 0.00 0.00 0.00 44 1005.1
20260508151209 12 203 30.6 40.2 0.00 0.00 0.00 43 1005.2
20260508151101 12 203 27.4 40.2 0.00 0.00 0.00 42 1005.2
20260508150954 12 180 32.2 40.2 0.00 0.00 0.00 43 1005.0
20260508150855 11 203 29.0 38.6 0.00 0.00 0.00 42 1005.3
20260508150834 12 180 29.0 38.6 0.00 0.00 0.00 43 1005.2
20260508150625 12 203 29.0 37.0 0.00 0.00 0.00 44 1005.3
20260508150517 12 225 29.0 37.0 0.00 0.00 0.00 43 1005.3
20260508150353 12 203 27.4 37.0 0.00 0.00 0.00 44 1005.4
20260508150253 11 203 27.4 37.0 0.00 0.00 0.00 43 1005.3
20260508150136 11 225 24.1 37.0 0.00 0.00 0.00 44 1005.2
20260508150028 11 203 24.1 40.2 0.00 0.00 0.00 44 1005.5
20260508145911 11 180 24.1 43.5 0.00 0.00 0.00 44 1005.5
20260508145802 12 203 27.4 43.5 0.00 0.00 0.00 45 1005.2
20260508145701 12 203 24.1 43.5 0.00 0.00 0.00 43 1005.4
20260508145551 12 203 25.7 43.5 0.00 0.00 0.00 43 1005.6
20260508145434 11 203 22.5 43.5 0.00 0.00 0.00 44 1005.4
20260508145324 11 203 24.1 43.5 0.00 0.00 0.00 43 1005.3
20260508145224 11 180 24.1 43.5 0.00 0.00 0.00 43 1005.3
20260508145107 11 203 27.4 43.5 0.00 0.00 0.00 45 1005.6
20260508144949 11 203 30.6 43.5 0.00 0.00 0.00 45 1005.5
20260508144845 11 225 33.8 43.5 0.00 0.00 0.00 43 1005.4
20260508144733 11 203 30.6 40.2 0.00 0.00 0.00 43 1005.4
20260508144623 11 225 24.1 38.6 0.00 0.00 0.00 44 1005.6
20260508144507 11 203 27.4 38.6 0.00 0.00 0.00 45 1005.3
20260508144359 11 203 29.0 38.6 0.00 0.00 0.00 44 1005.5
20260508144332 11 203 24.1 38.6 0.00 0.00 0.00 45 1005.6
20260508144255 11 203 27.4 38.6 0.00 0.00 0.00 44 1005.6
20260508144026 11 225 25.7 43.5 0.00 0.00 0.00 44 1005.6
20260508143920 11 203 24.1 43.5 0.00 0.00 0.00 43 1005.6
20260508143808 11 180 25.7 43.5 0.00 0.00 0.00 45 1005.7
20260508143700 11 203 30.6 43.5 0.00 0.00 0.00 44 1005.6
20260508143548 11 203 27.4 46.7 0.00 0.00 0.00 43 1005.4
20260508143437 11 180 27.4 46.7 0.00 0.00 0.00 43 1005.5
20260508143327 11 225 19.3 46.7 0.00 0.00 0.00 46 1005.7
20260508143300 11 203 30.6 46.7 0.00 0.00 0.00 45 1005.6
20260508143058 11 180 32.2 46.7 0.00 0.00 0.00 44 1005.5
20260508142955 10 203 30.6 46.7 0.00 0.00 0.00 44 1005.7
20260508142847 10 180 29.0 46.7 0.00 0.00 0.00 46 1005.7
20260508142737 10 203 33.8 46.7 0.00 0.00 0.00 46 1005.7
20260508142621 10 180 33.8 46.7 0.00 0.00 0.00 46 1005.6
20260508142509 10 203 27.4 43.5 0.00 0.00 0.00 47 1005.7
20260508142402 10 180 33.8 43.5 0.00 0.00 0.00 46 1005.8
20260508142300 10 203 30.6 43.5 0.00 0.00 0.00 47 1005.6
20260508142135 10 225 32.2 43.5 0.00 0.00 0.00 47 1005.7
20260508142033 10 203 27.4 43.5 0.00 0.00 0.00 47 1005.6
20260508141921 10 203 33.8 43.5 0.00 0.00 0.00 47 1005.8
20260508141811 10 203 25.7 43.5 0.00 0.00 0.00 47 1005.7
20260508141653 11 203 33.8 43.5 0.00 0.00 0.00 47 1005.5
20260508141441 11 203 24.1 43.5 0.00 0.00 0.00 47 1005.7
20260508141331 10 225 24.1 43.5 0.00 0.00 0.00 48 1005.8
20260508141217 10 203 24.1 43.5 0.00 0.00 0.00 47 1005.7
20260508141107 10 203 27.4 43.5 0.00 0.00 0.00 48 1005.8
20260508141003 10 203 30.6 43.5 0.00 0.00 0.00 48 1005.7
20260508140848 10 225 32.2 40.2 0.00 0.00 0.00 47 1005.8
20260508140735 10 225 32.2 40.2 0.00 0.00 0.00 47 1005.7
20260508140659 10 203 27.4 40.2 0.00 0.00 0.00 48 1005.8
20260508140514 10 180 27.4 40.2 0.00 0.00 0.00 48 1005.7
20260508140406 10 203 27.4 40.2 0.00 0.00 0.00 48 1005.8
20260508140248 10 203 27.4 40.2 0.00 0.00 0.00 48 1005.8
20260508140140 10 180 27.4 40.2 0.00 0.00 0.00 48 1005.7
20260508140036 10 225 29.0 40.2 0.00 0.00 0.00 47 1005.8
20260508135924 10 180 27.4 40.2 0.00 0.00 0.00 49 1005.7
20260508135808 10 203 30.6 40.2 0.00 0.00 0.00 47 1005.7
20260508135658 10 180 24.1 40.2 0.00 0.00 0.00 48 1005.7
20260508135550 10 203 27.4 40.2 0.00 0.00 0.00 48 1005.6
20260508135447 10 203 30.6 40.2 0.00 0.00 0.00 49 1005.6
20260508135328 10 180 32.2 40.2 0.00 0.00 0.00 48 1005.8
20260508135218 10 158 25.7 43.5 0.00 0.00 0.00 49 1005.6
20260508135110 10 203 25.7 43.5 0.00 0.00 0.00 49 1005.8
20260508135009 10 203 25.7 43.5 0.00 0.00 0.00 50 1005.7
20260508134848 10 203 29.0 43.5 0.00 0.00 0.00 48 1005.7
20260508134738 10 203 27.4 43.5 0.00 0.00 0.00 48 1005.7
20260508134630 10 203 27.4 43.5 0.00 0.00 0.00 49 1005.7
20260508134520 10 225 27.4 43.5 0.00 0.00 0.00 49 1005.5
20260508134400 10 203 27.4 43.5 0.00 0.00 0.00 49 1005.7
20260508134252 10 135 27.4 43.5 0.00 0.00 0.00 50 1005.7
20260508134143 10 203 30.6 43.5 0.00 0.00 0.00 48 1005.5
20260508134038 10 203 30.6 43.5 0.00 0.00 0.00 49 1005.5
20260508133924 10 158 32.2 43.5 0.00 0.00 0.00 49 1005.4
20260508133814 10 180 27.4 43.5 0.00 0.00 0.00 50 1005.4
20260508133704 10 225 32.2 43.5 0.00 0.00 0.00 49 1005.4
20260508133556 10 203 29.0 40.2 0.00 0.00 0.00 49 1005.4
20260508133328 10 225 30.6 43.5 0.00 0.00 0.00 49 1005.5
20260508133226 10 203 27.4 43.5 0.00 0.00 0.00 49 1005.4
20260508133115 10 225 27.4 43.5 0.00 0.00 0.00 49 1005.5
20260508132959 10 203 24.1 43.5 0.00 0.00 0.00 49 1005.4
20260508132846 9 180 33.8 43.5 0.00 0.00 0.00 49 1005.4
20260508132744 9 225 27.4 43.5 0.00 0.00 0.00 49 1005.1
20260508132634 9 180 27.4 43.5 0.00 0.00 0.00 50 1005.6
20260508132518 9 203 33.8 43.5 0.00 0.00 0.00 50 1005.4
20260508132258 9 203 27.4 43.5 0.00 0.00 0.00 50 1005.3
20260508132148 9 203 25.7 43.5 0.00 0.00 0.00 50 1005.3
20260508132030 9 225 27.4 43.5 0.00 0.00 0.00 49 1005.3
20260508131934 9 180 27.4 43.5 0.00 0.00 0.00 50 1005.2
20260508131823 9 225 29.0 43.5 0.00 0.00 0.00 49 1005.2
20260508131705 9 203 32.2 43.5 0.00 0.00 0.00 49 1005.0
20260508131547 9 225 33.8 43.5 0.00 0.00 0.00 49 1005.1
20260508131445 9 225 32.2 43.5 0.00 0.00 0.00 49 1005.1
20260508131334 9 203 30.6 43.5 0.00 0.00 0.00 50 1005.1
20260508131226 9 225 27.4 43.5 0.00 0.00 0.00 50 1004.9
20260508131108 9 248 32.2 43.5 0.00 0.00 0.00 50 1005.2
20260508131000 9 203 32.2 43.5 0.00 0.00 0.00 50 1005.0
20260508130859 9 225 30.6 40.2 0.00 0.00 0.00 50 1005.0
20260508130747 9 180 25.7 40.2 0.00 0.00 0.00 51 1005.0
20260508130626 9 180 29.0 40.2 0.00 0.00 0.00 50 1005.0
20260508130516 9 225 27.4 40.2 0.00 0.00 0.00 51 1005.0
20260508130408 10 203 27.4 49.9 0.00 0.00 0.00 51 1004.9
20260508130304 10 225 33.8 49.9 0.00 0.00 0.00 50 1004.9
20260508130148 10 203 25.7 49.9 0.00 0.00 0.00 50 1005.0
20260508130038 10 203 29.0 49.9 0.00 0.00 0.00 50 1005.1
20260508130010 10 203 29.0 49.9 0.00 0.00 0.00 50 1004.9
20260508125932 10 203 29.0 49.9 0.00 0.00 0.00 51 1005.0
20260508125659 10 225 27.4 49.9 0.00 0.00 0.00 52 1004.9
20260508125556 9 203 27.4 49.9 0.00 0.00 0.00 52 1004.9
20260508125445 9 203 30.6 49.9 0.00 0.00 0.00 51 1005.1
20260508125343 9 203 24.1 40.2 0.00 0.00 0.00 52 1005.0
20260508125223 9 203 27.4 40.2 0.00 0.00 0.00 52 1004.9
20260508125113 9 203 27.4 43.5 0.00 0.00 0.00 53 1005.0
20260508125004 9 203 29.0 43.5 0.00 0.00 0.00 52 1004.9
20260508124855 9 225 20.9 43.5 0.00 0.00 0.00 53 1005.0
20260508124736 9 203 29.0 43.5 0.00 0.00 0.00 53 1005.0
20260508124632 9 203 27.4 43.5 0.00 0.00 0.00 53 1004.9
20260508124524 9 203 27.4 43.5 0.00 0.00 0.00 53 1004.8
20260508124412 9 203 32.2 43.5 0.00 0.00 0.00 53 1005.0
20260508124303 9 203 32.2 43.5 0.00 0.00 0.00 52 1004.9
20260508124149 9 203 24.1 43.5 0.00 0.00 0.00 53 1004.7
20260508124041 9 203 22.5 38.6 0.00 0.00 0.00 54 1004.8
20260508123933 9 203 27.4 38.6 0.00 0.00 0.00 55 1004.7
20260508123814 9 180 27.4 38.6 0.00 0.00 0.00 54 1004.7
20260508123704 9 180 25.7 38.6 0.00 0.00 0.00 55 1004.6
20260508123556 9 225 24.1 38.6 0.00 0.00 0.00 55 1004.7
20260508123454 9 203 27.4 38.6 0.00 0.00 0.00 54 1004.7
20260508123336 8 225 24.1 38.6 0.00 0.00 0.00 55 1004.8
20260508123115 8 180 24.1 40.2 0.00 0.00 0.00 56 1004.8
20260508123013 8 180 24.1 40.2 0.00 0.00 0.00 56 1004.7
20260508122852 8 203 27.4 40.2 0.00 0.00 0.00 56 1004.9
20260508122743 8 180 27.4 40.2 0.00 0.00 0.00 56 1004.7
20260508122634 8 203 24.1 40.2 0.00 0.00 0.00 56 1004.9
20260508122526 8 203 27.4 40.2 0.00 0.00 0.00 56 1004.9
20260508122407 8 203 25.7 40.2 0.00 0.00 0.00 56 1004.7
20260508122306 8 203 29.0 40.2 0.00 0.00 0.00 56 1004.7
20260508122156 8 203 27.4 40.2 0.00 0.00 0.00 57 1004.6
20260508122046 8 203 27.4 40.2 0.00 0.00 0.00 57 1004.7
20260508121926 8 203 30.6 40.2 0.00 0.00 0.00 56 1004.6
20260508121849 8 203 24.1 37.0 0.00 0.00 0.00 58 1004.7
20260508121814 8 225 27.4 37.0 0.00 0.00 0.00 57 1004.7
20260508121600 8 203 22.5 37.0 0.00 0.00 0.00 59 1004.8
20260508121442 8 203 27.4 37.0 0.00 0.00 0.00 57 1004.7
20260508121333 8 203 24.1 37.0 0.00 0.00 0.00 59 1004.5
20260508121246 8 203 27.4 37.0 0.00 0.00 0.00 58 1004.7
20260508121121 8 203 22.5 37.0 0.00 0.00 0.00 58 1004.6
20260508121005 8 203 24.1 37.0 0.00 0.00 0.00 59 1004.6
20260508120855 8 203 24.1 37.0 0.00 0.00 0.00 59 1004.7
20260508120746 8 180 19.3 37.0 0.00 0.00 0.00 60 1004.7
20260508120524 8 203 27.4 37.0 0.00 0.00 0.00 59 1004.6
20260508120412 8 225 24.1 37.0 0.00 0.00 0.00 58 1004.5
20260508120306 7 158 25.7 38.6 0.00 0.00 0.00 59 1004.5
20260508120206 7 203 22.5 38.6 0.00 0.00 0.00 59 1004.6
20260508120043 7 158 24.1 38.6 0.00 0.00 0.00 59 1004.6
20260508115933 7 203 24.1 38.6 0.00 0.00 0.00 60 1004.6
20260508115823 7 180 24.1 38.6 0.00 0.00 0.00 59 1004.6
20260508115713 7 180 27.4 38.6 0.00 0.00 0.00 60 1004.6
20260508115555 7 203 22.5 38.6 0.00 0.00 0.00 60 1004.7
20260508115453 7 180 27.4 38.6 0.00 0.00 0.00 60 1004.6
20260508115345 7 203 25.7 38.6 0.00 0.00 0.00 61 1004.7
20260508115235 7 203 24.1 33.8 0.00 0.00 0.00 61 1004.7
20260508115126 7 203 24.1 33.8 0.00 0.00 0.00 61 1004.7
20260508115007 7 203 22.5 33.8 0.00 0.00 0.00 61 1004.5
20260508114858 7 203 19.3 33.8 0.00 0.00 0.00 61 1004.4
20260508114755 7 203 20.9 33.8 0.00 0.00 0.00 61 1004.5
20260508114728 7 203 24.1 33.8 0.00 0.00 0.00 61 1004.4
20260508114526 7 203 25.7 33.8 0.00 0.00 0.00 61 1004.5
20260508114417 7 203 20.9 33.8 0.00 0.00 0.00 62 1004.3
20260508114313 7 203 24.1 33.8 0.00 0.00 0.00 62 1004.5
20260508114154 7 225 24.1 33.8 0.00 0.00 0.00 63 1004.4
20260508113933 7 203 20.9 33.8 0.00 0.00 0.00 63 1004.3
20260508113824 7 180 22.5 33.8 0.00 0.00 0.00 63 1004.2
20260508113726 7 203 24.1 33.8 0.00 0.00 0.00 62 1004.2
20260508113651 6 180 25.7 33.8 0.00 0.00 0.00 62 1004.2
20260508113455 6 203 20.9 33.8 0.00 0.00 0.00 63 1004.4
20260508113345 6 180 24.1 33.8 0.00 0.00 0.00 63 1004.3
20260508113229 6 225 24.1 33.8 0.00 0.00 0.00 63 1004.4
20260508113128 6 225 24.1 33.8 0.00 0.00 0.00 63 1004.3
20260508113010 6 203 20.9 32.2 0.00 0.00 0.00 64 1004.1
20260508112745 6 203 17.7 29.0 0.00 0.00 0.00 65 1004.3
20260508112634 6 203 22.5 29.0 0.00 0.00 0.00 65 1004.3
20260508112532 6 225 22.5 29.0 0.00 0.00 0.00 65 1004.4
20260508112420 6 203 17.7 29.0 0.00 0.00 0.00 66 1004.5
20260508112306 6 203 16.1 29.0 0.00 0.00 0.00 66 1004.4
20260508112153 6 203 17.7 29.0 0.00 0.00 0.00 66 1004.4
20260508112045 6 203 20.9 29.0 0.00 0.00 0.00 65 1004.5
20260508111943 6 203 22.5 29.0 0.00 0.00 0.00 65 1004.4
20260508111823 6 203 19.3 27.4 0.00 0.00 0.00 66 1004.4
20260508111712 6 203 17.7 27.4 0.00 0.00 0.00 66 1004.4
20260508111604 6 225 19.3 27.4 0.00 0.00 0.00 66 1004.5
20260508111336 6 203 17.7 25.7 0.00 0.00 0.00 66 1004.4
20260508111234 5 203 17.7 25.7 0.00 0.00 0.00 66 1004.5
20260508111133 5 203 16.1 25.7 0.00 0.00 0.00 66 1004.6
20260508111058 5 225 17.7 25.7 0.00 0.00 0.00 66 1004.6
20260508110855 5 180 17.7 25.7 0.00 0.00 0.00 66 1004.6
20260508110746 5 203 17.7 25.7 0.00 0.00 0.00 67 1004.3
20260508110638 5 180 17.7 25.7 0.00 0.00 0.00 67 1004.5
20260508110530 5 180 17.7 25.7 0.00 0.00 0.00 67 1004.5
20260508110412 5 225 17.7 25.7 0.00 0.00 0.00 67 1004.4
20260508110310 5 203 16.1 25.7 0.00 0.00 0.00 68 1004.2
20260508110200 5 225 16.1 25.7 0.00 0.00 0.00 68 1004.4
20260508110052 5 203 17.7 24.1 0.00 0.00 0.00 68 1004.5
20260508105934 5 203 17.7 24.1 0.00 0.00 0.00 67 1004.4
20260508105823 5 203 14.5 24.1 0.00 0.00 0.00 68 1004.4
20260508105722 5 203 14.5 24.1 0.00 0.00 0.00 68 1004.4
20260508105611 5 203 17.7 24.1 0.00 0.00 0.00 68 1004.4
20260508105454 5 225 17.7 24.1 0.00 0.00 0.00 68 1004.3
20260508105344 5 203 16.1 24.1 0.00 0.00 0.00 68 1004.4
20260508105234 5 203 17.7 24.1 0.00 0.00 0.00 67 1004.3
20260508105126 5 203 17.7 24.1 0.00 0.00 0.00 67 1004.3
20260508105006 5 203 14.5 24.1 0.00 0.00 0.00 68 1004.2
20260508104756 5 203 17.7 24.1 0.00 0.00 0.00 68 1004.2
20260508104651 5 203 17.7 24.1 0.00 0.00 0.00 68 1004.1
20260508104529 5 225 16.1 22.5 0.00 0.00 0.00 69 1004.2
20260508104422 5 225 14.5 22.5 0.00 0.00 0.00 69 1004.0
20260508104309 5 225 16.1 22.5 0.00 0.00 0.00 68 1004.1
20260508104208 5 225 16.1 22.5 0.00 0.00 0.00 68 1004.1
20260508104049 5 203 14.5 22.5 0.00 0.00 0.00 69 1004.0
20260508103940 5 225 17.7 22.5 0.00 0.00 0.00 68 1004.0
20260508103828 5 225 17.7 22.5 0.00 0.00 0.00 69 1004.2
20260508103725 5 203 17.7 22.5 0.00 0.00 0.00 68 1003.7
20260508103601 5 225 19.3 22.5 0.00 0.00 0.00 68 1003.9
20260508103459 5 203 17.7 22.5 0.00 0.00 0.00 69 1003.8
20260508103357 5 203 17.7 25.7 0.00 0.00 0.00 69 1003.9
20260508103245 5 203 17.7 25.7 0.00 0.00 0.00 68 1003.9
20260508103126 5 203 17.7 25.7 0.00 0.00 0.00 69 1003.8
20260508103033 5 225 14.5 25.7 0.00 0.00 0.00 69 1003.9
20260508102944 5 225 17.7 25.7 0.00 0.00 0.00 68 1004.0
20260508102759 5 203 17.7 25.7 0.00 0.00 0.00 68 1003.8
20260508102640 5 203 17.7 25.7 0.00 0.00 0.00 68 1004.0
20260508102531 5 225 16.1 29.0 0.00 0.00 0.00 69 1003.7
20260508102421 5 203 19.3 29.0 0.00 0.00 0.00 68 1003.8
20260508102202 5 225 17.7 29.0 0.00 0.00 0.00 69 1003.7
20260508102052 5 225 16.1 29.0 0.00 0.00 0.00 69 1003.7
20260508101943 5 203 17.7 29.0 0.00 0.00 0.00 69 1003.9
20260508101836 5 203 17.7 29.0 0.00 0.00 0.00 69 1003.8
20260508101714 5 225 14.5 29.0 0.00 0.00 0.00 69 1003.6
20260508101606 5 203 19.3 29.0 0.00 0.00 0.00 68 1003.6
20260508101504 5 203 17.7 27.4 0.00 0.00 0.00 68 1003.7
20260508101354 5 225 16.1 27.4 0.00 0.00 0.00 69 1003.7
20260508101236 5 180 17.7 27.4 0.00 0.00 0.00 69 1003.6
20260508101126 5 225 17.7 25.7 0.00 0.00 0.00 68 1003.5
20260508101016 5 225 17.7 25.7 0.00 0.00 0.00 69 1003.5
20260508100911 5 225 17.7 25.7 0.00 0.00 0.00 69 1003.5
20260508100644 5 225 16.1 25.7 0.00 0.00 0.00 70 1003.6
20260508100533 5 225 16.1 27.4 0.00 0.00 0.00 70 1003.7
20260508100425 5 203 16.1 27.4 0.00 0.00 0.00 70 1003.6
20260508100306 5 203 19.3 29.0 0.00 0.00 0.00 69 1003.6
20260508100204 5 203 16.1 29.0 0.00 0.00 0.00 69 1003.5
20260508100056 5 203 19.3 29.0 0.00 0.00 0.00 69 1003.6
20260508095946 5 225 19.3 29.0 0.00 0.00 0.00 69 1003.6
20260508095828 5 203 20.9 29.0 0.00 0.00 0.00 68 1003.6
20260508095612 5 225 22.5 29.0 0.00 0.00 0.00 68 1003.5
20260508095502 5 203 17.7 29.0 0.00 0.00 0.00 69 1003.4
20260508095346 5 225 24.1 29.0 0.00 0.00 0.00 69 1003.7
20260508095238 5 225 17.7 25.7 0.00 0.00 0.00 69 1003.6
20260508095128 5 203 19.3 25.7 0.00 0.00 0.00 69 1003.5
20260508095026 5 180 17.7 25.7 0.00 0.00 0.00 70 1003.6
20260508094909 5 203 17.7 25.7 0.00 0.00 0.00 70 1003.5
20260508094842 5 203 19.3 25.7 0.00 0.00 0.00 69 1003.4
20260508094648 5 203 17.7 25.7 0.00 0.00 0.00 70 1003.4
20260508094537 5 225 17.7 27.4 0.00 0.00 0.00 70 1003.4
20260508094426 5 225 17.7 27.4 0.00 0.00 0.00 69 1003.4
20260508094316 5 225 19.3 27.4 0.00 0.00 0.00 69 1003.6
20260508094208 5 225 17.7 27.4 0.00 0.00 0.00 70 1003.5
20260508094055 5 203 16.1 27.4 0.00 0.00 0.00 70 1003.5
20260508093937 5 203 17.7 27.4 0.00 0.00 0.00 70 1003.5
20260508093835 5 225 17.7 29.0 0.00 0.00 0.00 70 1003.6
20260508093727 5 225 19.3 29.0 0.00 0.00 0.00 70 1003.5
20260508093616 5 225 16.1 29.0 0.00 0.00 0.00 70 1003.6
20260508093456 5 225 16.1 29.0 0.00 0.00 0.00 71 1003.5
20260508093348 5 203 17.7 29.0 0.00 0.00 0.00 70 1003.5
20260508093243 5 225 17.7 29.0 0.00 0.00 0.00 71 1003.5
20260508093014 5 225 19.3 29.0 0.00 0.00 0.00 70 1003.4
20260508092906 5 203 16.1 29.0 0.00 0.00 0.00 71 1003.6
20260508092804 5 203 17.7 24.1 0.00 0.00 0.00 70 1003.5
20260508092652 5 180 17.7 24.1 0.00 0.00 0.00 70 1003.6
20260508092534 5 225 17.7 24.1 0.00 0.00 0.00 71 1003.5
20260508092426 5 225 16.1 24.1 0.00 0.00 0.00 71 1003.4
20260508092316 5 225 17.7 25.7 0.00 0.00 0.00 71 1003.5
20260508092208 5 225 17.7 25.7 0.00 0.00 0.00 71 1003.4
20260508092055 5 225 16.1 27.4 0.00 0.00 0.00 71 1003.4
20260508091945 5 225 17.7 27.4 0.00 0.00 0.00 71 1003.6
20260508091835 5 225 17.7 27.4 0.00 0.00 0.00 70 1003.4
20260508091726 5 225 16.1 27.4 0.00 0.00 0.00 71 1003.4
20260508091625 5 225 16.1 27.4 0.00 0.00 0.00 71 1003.5
20260508091500 5 225 17.7 27.4 0.00 0.00 0.00 70 1003.5
20260508091352 5 203 19.3 27.4 0.00 0.00 0.00 70 1003.4
20260508091250 5 225 17.7 27.4 0.00 0.00 0.00 70 1003.6
20260508091126 5 180 20.9 27.4 0.00 0.00 0.00 70 1003.5
20260508091024 5 203 17.7 25.7 0.00 0.00 0.00 70 1003.4
20260508090909 5 225 20.9 25.7 0.00 0.00 0.00 70 1003.3
20260508090801 5 203 17.7 27.4 0.00 0.00 0.00 71 1003.5
20260508090644 5 203 17.7 27.4 0.00 0.00 0.00 71 1003.6
20260508090431 5 203 17.7 27.4 0.00 0.00 0.00 71 1003.5
20260508090321 5 203 17.7 27.4 0.00 0.00 0.00 70 1003.4
20260508090206 5 203 16.1 27.4 0.00 0.00 0.00 71 1003.4
20260508090055 5 180 19.3 29.0 0.00 0.00 0.00 71 1003.5
20260508085946 5 225 19.3 29.0 0.00 0.00 0.00 70 1003.5
20260508085845 5 225 17.7 29.0 0.00 0.00 0.00 71 1003.3
20260508085724 5 203 20.9 29.0 0.00 0.00 0.00 71 1003.5
20260508085612 5 203 17.7 29.0 0.00 0.00 0.00 71 1003.3
20260508085510 5 203 17.7 29.0 0.00 0.00 0.00 72 1003.4
20260508085401 5 203 16.1 29.0 0.00 0.00 0.00 72 1003.4
20260508085243 5 203 17.7 29.0 0.00 0.00 0.00 71 1003.3
20260508085133 5 225 22.5 29.0 0.00 0.00 0.00 71 1003.2
20260508085033 5 203 17.7 29.0 0.00 0.00 0.00 71 1003.2
20260508084924 5 203 19.3 29.0 0.00 0.00 0.00 71 1003.3
20260508084755 5 225 19.3 29.0 0.00 0.00 0.00 71 1003.3
20260508084650 5 225 17.7 29.0 0.00 0.00 0.00 72 1003.1
20260508084541 5 203 20.9 29.0 0.00 0.00 0.00 71 1003.1
20260508084439 5 225 19.3 32.2 0.00 0.00 0.00 72 1003.3
20260508084321 5 203 17.7 32.2 0.00 0.00 0.00 72 1003.0
20260508084210 5 203 19.3 32.2 0.00 0.00 0.00 71 1003.2
20260508084135 5 203 17.7 32.2 0.00 0.00 0.00 71 1003.1
20260508084106 5 203 17.7 32.2 0.00 0.00 0.00 71 1003.1
20260508083838 5 225 20.9 32.2 0.00 0.00 0.00 72 1003.3
20260508083730 5 225 17.7 32.2 0.00 0.00 0.00 72 1003.3
20260508083632 5 203 17.7 32.2 0.00 0.00 0.00 72 1003.0
20260508083556 5 225 19.3 32.2 0.00 0.00 0.00 71 1003.4
20260508083355 5 203 20.9 32.2 0.00 0.00 0.00 70 1003.1
20260508083245 5 203 24.1 32.2 0.00 0.00 0.00 71 1003.1
20260508083144 5 225 20.9 32.2 0.00 0.00 0.00 71 1003.2
20260508083101 5 225 17.7 32.2 0.00 0.00 0.00 72 1003.2
20260508082805 5 203 17.7 32.2 0.00 0.00 0.00 71 1003.1
20260508082654 5 225 17.7 32.2 0.00 0.00 0.00 71 1003.1
20260508082551 5 225 24.1 29.0 0.00 0.00 0.00 71 1003.1
20260508082317 5 225 17.7 27.4 0.00 0.00 0.00 72 1003.2
20260508082215 5 225 17.7 27.4 0.00 0.00 0.00 72 1003.2
20260508082103 5 203 19.3 27.4 0.00 0.00 0.00 72 1003.2
20260508081946 5 225 17.7 25.7 0.00 0.00 0.00 72 1003.2
20260508081836 5 203 19.3 25.7 0.00 0.00 0.00 72 1003.2
20260508081729 5 225 16.1 25.7 0.00 0.00 0.00 72 1003.1
20260508081626 5 203 20.9 25.7 0.00 0.00 0.00 72 1003.0
20260508081533 5 203 17.7 25.7 0.00 0.00 0.00 73 1003.2
20260508081505 5 203 17.7 25.7 0.00 0.00 0.00 73 1003.2
20260508081247 5 225 16.1 25.7 0.00 0.00 0.00 73 1003.2
20260508081145 5 225 16.1 25.7 0.00 0.00 0.00 73 1003.2
20260508081102 5 203 17.7 25.7 0.00 0.00 0.00 73 1003.2
20260508081026 5 203 16.1 25.7 0.00 0.00 0.00 74 1003.1
20260508080809 5 203 16.1 25.7 0.00 0.00 0.00 73 1003.2
20260508080701 5 225 17.7 25.7 0.00 0.00 0.00 74 1003.1
20260508080541 5 203 17.7 24.1 0.00 0.00 0.00 74 1003.1
20260508080506 5 203 16.1 24.1 0.00 0.00 0.00 75 1003.2
20260508080328 5 203 12.9 24.1 0.00 0.00 0.00 76 1003.1
20260508080217 5 225 16.1 24.1 0.00 0.00 0.00 76 1003.1
20260508080103 5 225 17.7 24.1 0.00 0.00 0.00 76 1003.2
20260508075952 5 225 17.7 24.1 0.00 0.00 0.00 75 1003.1
20260508075852 5 225 17.7 24.1 0.00 0.00 0.00 76 1003.2
20260508075740 5 203 17.7 24.1 0.00 0.00 0.00 76 1003.3
20260508075615 5 203 16.1 24.1 0.00 0.00 0.00 76 1003.0
20260508075528 5 203 17.7 24.1 0.00 0.00 0.00 76 1002.9
20260508075453 5 225 16.1 22.5 0.00 0.00 0.00 77 1002.9
20260508075257 4 180 16.1 22.5 0.00 0.00 0.00 78 1003.0
20260508075133 4 203 12.9 22.5 0.00 0.00 0.00 78 1003.1
20260508075037 4 225 14.5 22.5 0.00 0.00 0.00 78 1003.2
20260508074922 4 225 12.9 22.5 0.00 0.00 0.00 79 1003.1
20260508074656 4 225 14.5 22.5 0.00 0.00 0.00 79 1003.1
20260508074544 4 225 12.9 17.7 0.00 0.00 0.00 80 1003.1
20260508074436 4 225 12.9 17.7 0.00 0.00 0.00 80 1003.0
20260508074326 4 225 12.9 17.7 0.00 0.00 0.00 80 1003.0
20260508074208 4 225 12.9 17.7 0.00 0.00 0.00 80 1003.0
20260508074100 4 203 12.9 17.7 0.00 0.00 0.00 80 1003.0
20260508073958 4 225 11.3 17.7 0.00 0.00 0.00 80 1003.0
20260508073851 4 203 12.9 17.7 0.00 0.00 0.00 80 1003.1
20260508073731 4 225 11.3 17.7 0.00 0.00 0.00 80 1003.1
20260508073622 4 225 12.9 17.7 0.00 0.00 0.00 80 1002.9
20260508073518 4 225 11.3 17.7 0.00 0.00 0.00 80 1002.9
20260508073408 4 225 11.3 17.7 0.00 0.00 0.00 80 1003.2
20260508073140 4 203 12.9 17.7 0.00 0.00 0.00 80 1003.1
20260508073032 4 225 12.9 17.7 0.00 0.00 0.00 80 1003.2
20260508072920 4 225 11.3 17.7 0.00 0.00 0.00 81 1003.2
20260508072807 4 225 11.3 17.7 0.00 0.00 0.00 81 1003.1
20260508072656 4 225 11.3 17.7 0.00 0.00 0.00 81 1003.1
20260508072554 4 225 9.7 17.7 0.00 0.00 0.00 81 1003.0
20260508072442 4 225 12.9 17.7 0.00 0.00 0.00 81 1003.3
20260508072326 4 225 12.9 17.7 0.00 0.00 0.00 81 1003.2
20260508072106 4 225 12.9 17.7 0.00 0.00 0.00 81 1003.1
20260508071958 4 203 11.3 17.7 0.00 0.00 0.00 81 1003.3
20260508071838 4 225 12.9 17.7 0.00 0.00 0.00 81 1003.3
20260508071738 4 225 11.3 17.7 0.00 0.00 0.00 81 1003.5
20260508071627 4 225 12.9 17.7 0.00 0.00 0.00 81 1003.5
20260508071523 4 203 12.9 17.7 0.00 0.00 0.00 81 1003.4
20260508071358 4 225 12.9 17.7 0.00 0.00 0.00 81 1003.3
20260508071250 4 225 11.3 17.7 0.00 0.00 0.00 81 1003.4
20260508071144 4 225 9.7 17.7 0.00 0.00 0.00 81 1003.3
20260508071037 4 225 11.3 17.7 0.00 0.00 0.00 81 1003.3
20260508070918 4 225 9.7 17.7 0.00 0.00 0.00 81 1003.3
20260508070813 4 248 9.7 17.7 0.00 0.00 0.00 81 1003.4
20260508070705 4 225 12.9 17.7 0.00 0.00 0.00 80 1003.5
20260508070555 4 225 12.9 17.7 0.00 0.00 0.00 80 1003.5
20260508070436 4 248 12.9 17.7 0.00 0.00 0.00 80 1003.4
20260508070326 4 203 12.9 17.7 0.00 0.00 0.00 80 1003.5
20260508070216 4 225 12.9 17.7 0.00 0.00 0.00 80 1003.5
20260508070114 4 225 9.7 14.5 0.00 0.00 0.00 80 1003.4
20260508065950 4 248 11.3 17.7 0.00 0.00 0.00 80 1003.5
20260508065848 4 225 9.7 17.7 0.00 0.00 0.00 80 1003.7
20260508065813 5 248 8.0 17.7 0.00 0.00 0.00 79 1003.6
20260508065736 5 248 8.0 17.7 0.00 0.00 0.00 79 1003.5
20260508065515 5 225 11.3 17.7 0.00 0.00 0.00 78 1003.5
20260508065404 5 225 11.3 17.7 0.00 0.00 0.00 78 1003.5
20260508065255 5 203 11.3 17.7 0.00 0.00 0.00 77 1003.5
20260508065145 5 225 11.3 17.7 0.00 0.00 0.00 77 1003.5
20260508065032 5 225 11.3 17.7 0.00 0.00 0.00 77 1003.5
20260508064922 5 203 11.3 17.7 0.00 0.00 0.00 77 1003.4
20260508064811 5 203 12.9 17.7 0.00 0.00 0.00 76 1003.2
20260508064728 5 203 12.9 17.7 0.00 0.00 0.00 76 1003.4
20260508064551 5 225 12.9 17.7 0.00 0.00 0.00 76 1003.3
20260508064441 5 225 12.9 17.7 0.00 0.00 0.00 77 1003.4
20260508064331 5 203 11.3 17.7 0.00 0.00 0.00 77 1003.5
20260508064227 5 225 11.3 17.7 0.00 0.00 0.00 77 1003.4
20260508064108 5 203 11.3 17.7 0.00 0.00 0.00 77 1003.4
20260508063848 5 203 11.3 17.7 0.00 0.00 0.00 76 1003.3
20260508063746 5 225 12.9 17.7 0.00 0.00 0.00 76 1003.4
20260508063711 5 225 12.9 17.7 0.00 0.00 0.00 76 1003.5
20260508063516 5 203 12.9 17.7 0.00 0.00 0.00 76 1003.6
20260508063406 5 203 12.9 17.7 0.00 0.00 0.00 76 1003.4
20260508063304 5 225 11.3 17.7 0.00 0.00 0.00 76 1003.4
20260508063140 5 203 12.9 17.7 0.00 0.00 0.00 76 1003.6
20260508062924 5 203 12.9 17.7 0.00 0.00 0.00 75 1003.5
20260508062820 5 225 12.9 17.7 0.00 0.00 0.00 75 1003.3
20260508062704 5 225 12.9 20.9 0.00 0.00 0.00 75 1003.6
20260508062602 5 225 12.9 20.9 0.00 0.00 0.00 75 1003.4
20260508062447 5 203 11.3 20.9 0.00 0.00 0.00 76 1003.6
20260508062336 6 225 9.7 20.9 0.00 0.00 0.00 76 1003.4
20260508062220 6 203 12.9 20.9 0.00 0.00 0.00 74 1003.3
20260508062110 6 203 12.9 20.9 0.00 0.00 0.00 75 1003.4
20260508062000 6 225 12.9 20.9 0.00 0.00 0.00 74 1003.6
20260508061852 6 248 12.9 20.9 0.00 0.00 0.00 75 1003.6
20260508061734 6 203 12.9 20.9 0.00 0.00 0.00 75 1003.4
20260508061631 6 203 12.9 20.9 0.00 0.00 0.00 75 1003.3
20260508061529 6 225 11.3 20.9 0.00 0.00 0.00 75 1003.5
20260508061411 6 225 12.9 20.9 0.00 0.00 0.00 75 1003.4
20260508061252 6 180 11.3 20.9 0.00 0.00 0.00 75 1003.6
20260508061152 6 203 12.9 20.9 0.00 0.00 0.00 75 1003.3
20260508061036 6 203 12.9 20.9 0.00 0.00 0.00 75 1003.5
20260508060933 6 203 12.9 20.9 0.00 0.00 0.00 75 1003.4
20260508060809 6 203 14.5 20.9 0.00 0.00 0.00 75 1003.3
20260508060706 6 203 12.9 20.9 0.00 0.00 0.00 74 1003.3
20260508060558 6 225 12.9 20.9 0.00 0.00 0.00 74 1003.3
20260508055929 6 203 12.9 17.7 0.00 0.00 0.00 76 1003.4
20260508055829 6 225 12.9 17.7 0.00 0.00 0.00 76 1003.4
20260508055707 6 225 11.3 17.7 0.00 0.00 0.00 77 1003.6
20260508055555 6 203 11.3 17.7 0.00 0.00 0.00 76 1003.3
20260508055452 6 203 11.3 17.7 0.00 0.00 0.00 76 1003.4
20260508055342 6 225 12.9 17.7 0.00 0.00 0.00 75 1003.6
20260508055226 6 203 12.9 17.7 0.00 0.00 0.00 75 1003.5
20260508055124 6 203 12.9 17.7 0.00 0.00 0.00 75 1003.4
20260508055004 6 203 12.9 17.7 0.00 0.00 0.00 74 1003.5
20260508054903 6 225 12.9 17.7 0.00 0.00 0.00 74 1003.4
20260508054745 6 203 11.3 17.7 0.00 0.00 0.00 75 1003.7
20260508054635 6 248 12.9 17.7 0.00 0.00 0.00 74 1003.6
20260508054523 6 203 12.9 17.7 0.00 0.00 0.00 75 1003.7
20260508054415 6 203 12.9 17.7 0.00 0.00 0.00 74 1003.5
20260508054256 6 225 12.9 17.7 0.00 0.00 0.00 75 1003.6
20260508054154 6 225 12.9 17.7 0.00 0.00 0.00 75 1003.7
20260508053934 6 203 12.9 17.7 0.00 0.00 0.00 74 1003.7
20260508053813 6 225 12.9 17.7 0.00 0.00 0.00 75 1003.7
20260508053711 6 225 12.9 22.5 0.00 0.00 0.00 75 1003.5
20260508053604 7 225 12.9 22.5 0.00 0.00 0.00 74 1003.5
20260508053454 7 225 12.9 22.5 0.00 0.00 0.00 74 1003.5
20260508053335 7 225 12.9 24.1 0.00 0.00 0.00 75 1003.6
20260508053226 7 225 11.3 24.1 0.00 0.00 0.00 75 1003.7
20260508053121 7 203 12.9 24.1 0.00 0.00 0.00 75 1003.5
20260508053010 7 203 12.9 24.1 0.00 0.00 0.00 74 1003.4
20260508052858 7 203 12.9 24.1 0.00 0.00 0.00 74 1003.6
20260508052748 7 203 16.1 24.1 0.00 0.00 0.00 73 1003.6
20260508052638 7 203 14.5 24.1 0.00 0.00 0.00 73 1003.6
20260508052538 7 203 14.5 24.1 0.00 0.00 0.00 73 1003.6
20260508052408 7 203 14.5 22.5 0.00 0.00 0.00 73 1003.7
20260508052307 7 203 16.1 22.5 0.00 0.00 0.00 74 1003.6
20260508052157 7 203 12.9 22.5 0.00 0.00 0.00 74 1003.6
20260508052121 7 225 14.5 22.5 0.00 0.00 0.00 74 1003.5
20260508051927 7 203 17.7 22.5 0.00 0.00 0.00 73 1003.5
20260508051818 7 203 14.5 22.5 0.00 0.00 0.00 74 1003.5
20260508051715 7 203 16.1 22.5 0.00 0.00 0.00 73 1003.6
20260508051607 7 203 14.5 22.5 0.00 0.00 0.00 74 1003.3
20260508051338 7 203 16.1 22.5 0.00 0.00 0.00 74 1003.6
20260508051230 7 203 17.7 22.5 0.00 0.00 0.00 73 1003.5
20260508051129 7 203 17.7 22.5 0.00 0.00 0.00 74 1003.6
20260508051024 7 180 14.5 24.1 0.00 0.00 0.00 74 1003.5
20260508050854 7 203 17.7 24.1 0.00 0.00 0.00 74 1003.7
20260508050747 7 203 14.5 25.7 0.00 0.00 0.00 74 1003.4
20260508050645 7 203 12.9 25.7 0.00 0.00 0.00 74 1003.3
20260508050553 7 203 17.7 25.7 0.00 0.00 0.00 74 1003.6
20260508050416 7 225 17.7 25.7 0.00 0.00 0.00 74 1003.5
20260508050307 7 225 17.7 25.7 0.00 0.00 0.00 74 1003.5
20260508050156 7 225 16.1 25.7 0.00 0.00 0.00 75 1003.5
20260508050055 7 203 17.7 25.7 0.00 0.00 0.00 75 1003.4
20260508045934 7 203 16.1 25.7 0.00 0.00 0.00 75 1003.5
20260508045823 7 203 17.7 25.7 0.00 0.00 0.00 76 1003.4
20260508045721 7 203 17.7 25.7 0.00 0.00 0.00 76 1003.4
20260508045556 7 203 17.7 22.5 0.00 0.00 0.00 76 1003.5
20260508045452 7 225 16.1 22.5 0.00 0.00 0.00 77 1003.4
20260508045342 7 225 17.7 22.5 0.00 0.00 0.00 77 1003.3
20260508045234 7 203 17.7 22.5 0.00 0.00 0.00 78 1003.4
20260508045121 7 180 16.1 22.5 0.00 0.00 0.00 79 1003.4
20260508045009 7 225 17.7 22.5 0.00 0.00 0.00 79 1003.3
20260508044831 5 203 3.2 6.4 0.00 0.00 0.13 86 1002.2
20260508044752 6 203 14.5 20.9 0.00 0.00 0.00 80 1003.3
20260508044636 6 225 12.9 17.7 0.00 0.00 0.00 81 1003.3
20260508044528 6 203 14.5 17.7 0.00 0.00 0.00 81 1003.2
20260508044424 6 203 12.9 20.9 0.00 0.00 0.00 82 1003.3
20260508044312 6 248 11.3 20.9 0.00 0.00 0.00 82 1003.4
20260508044156 6 225 14.5 20.9 0.00 0.00 0.00 82 1003.3
20260508044045 6 203 12.9 20.9 0.00 0.00 0.00 82 1003.4
20260508043946 6 225 12.9 20.9 0.00 0.00 0.00 83 1003.3
20260508043850 6 225 12.9 20.9 0.00 0.00 0.00 83 1003.4
20260508043712 6 203 12.9 20.9 0.00 0.00 0.00 83 1003.4
20260508043602 6 203 12.9 20.9 0.00 0.00 0.00 83 1003.4
20260508043454 6 225 12.9 20.9 0.00 0.00 0.00 82 1003.4
20260508043354 6 225 12.9 20.9 0.00 0.00 0.00 82 1003.5
20260508043228 6 225 12.9 17.7 0.00 0.00 0.00 83 1003.3
20260508043124 6 225 12.9 17.7 0.00 0.00 0.00 83 1003.4
20260508043011 6 180 14.5 17.7 0.00 0.00 0.00 82 1003.5
20260508042903 6 180 12.9 17.7 0.00 0.00 0.00 83 1003.6
20260508042752 6 225 12.9 17.7 0.00 0.00 0.00 83 1003.4
20260508042641 6 225 14.5 17.7 0.00 0.00 0.00 83 1003.2
20260508042533 6 203 11.3 17.7 0.00 0.00 0.00 83 1003.3
20260508042423 6 203 12.9 17.7 0.00 0.00 0.00 83 1003.3
20260508042154 6 203 12.9 17.7 0.00 0.00 0.00 83 1003.3
20260508042054 6 225 11.3 17.7 0.00 0.00 0.00 83 1003.2
20260508041946 6 225 11.3 17.7 0.00 0.00 0.00 83 1003.3
20260508041824 6 225 12.9 17.7 0.00 0.00 0.00 82 1003.3
20260508041712 6 203 12.9 17.7 0.00 0.00 0.00 83 1003.3
20260508041604 6 203 12.9 17.7 0.00 0.00 0.00 83 1003.3
20260508041456 6 203 11.3 17.7 0.00 0.00 0.00 82 1003.2
20260508041338 6 225 12.9 17.7 0.00 0.00 0.00 82 1003.4
20260508041236 6 203 12.9 17.7 0.00 0.00 0.00 82 1003.3
20260508041126 6 203 11.3 17.7 0.00 0.00 0.00 83 1003.3
20260508041024 6 225 12.9 17.7 0.00 0.00 0.00 83 1003.3
20260508040902 6 203 11.3 17.7 0.00 0.00 0.00 83 1003.3
20260508040640 6 225 11.3 17.7 0.00 0.00 0.00 83 1003.4
20260508040541 6 203 9.7 17.7 0.00 0.00 0.00 83 1003.3
20260508040425 6 225 9.7 17.7 0.00 0.00 0.00 83 1003.3
20260508040312 6 225 11.3 17.7 0.00 0.00 0.00 83 1003.2
20260508040201 6 225 12.9 17.7 0.00 0.00 0.00 83 1003.3
20260508040052 6 203 12.9 17.7 0.00 0.00 0.00 83 1003.3
20260508035940 6 225 9.7 17.7 0.00 0.00 0.00 84 1003.2
20260508035830 6 225 11.3 17.7 0.00 0.00 0.00 83 1003.4
20260508035622 6 225 12.9 17.7 0.00 0.00 0.00 83 1003.3
20260508035452 6 225 11.3 17.7 0.00 0.00 0.00 83 1003.3
20260508035344 6 203 14.5 17.7 0.00 0.00 0.00 83 1003.3
20260508035239 6 225 12.9 17.7 0.00 0.00 0.00 83 1003.0
20260508035130 6 225 12.9 17.7 0.00 0.00 0.00 83 1003.3
20260508035014 6 225 12.9 17.7 0.00 0.00 0.00 83 1003.2
20260508034906 6 225 12.9 17.7 0.00 0.00 0.00 83 1003.3
20260508034756 6 225 11.3 17.7 0.00 0.00 0.00 83 1003.2
20260508034645 6 203 12.9 17.7 0.00 0.00 0.00 83 1003.2
20260508034527 6 203 12.9 17.7 0.00 0.00 0.00 83 1003.2
20260508034424 6 203 12.9 17.7 0.00 0.00 0.00 83 1003.2
20260508034317 6 225 12.9 17.7 0.00 0.00 0.00 83 1003.2
20260508034206 6 225 12.9 17.7 0.00 0.00 0.00 83 1003.2
20260508034047 6 225 12.9 17.7 0.00 0.00 0.00 84 1003.2
20260508033938 6 203 12.9 17.7 0.00 0.00 0.00 84 1003.1
20260508033836 6 225 12.9 17.7 0.00 0.00 0.00 84 1003.3
20260508033724 6 225 12.9 17.7 0.00 0.00 0.00 84 1003.3
20260508033606 6 225 12.9 17.7 0.00 0.00 0.00 84 1003.3
20260508033455 6 225 12.9 17.7 0.00 0.00 0.00 84 1003.3
20260508033355 6 225 9.7 17.7 0.00 0.00 0.00 84 1003.2
20260508033245 6 225 12.9 17.7 0.00 0.00 0.00 85 1003.3
20260508033016 6 203 11.3 17.7 0.00 0.00 0.00 85 1003.4
20260508032909 6 225 9.7 14.5 0.00 0.00 0.00 85 1003.2
20260508032800 6 225 9.7 14.5 0.00 0.00 0.00 84 1003.2
20260508032644 6 225 9.7 14.5 0.00 0.00 0.00 85 1003.2
20260508032532 6 225 9.7 14.5 0.00 0.00 0.00 85 1003.1
20260508032424 6 225 9.7 14.5 0.00 0.00 0.00 85 1003.1
20260508032316 6 225 9.7 12.9 0.00 0.00 0.00 84 1003.0
20260508032158 6 203 8.0 12.9 0.00 0.00 0.00 85 1003.0
20260508032054 6 203 8.0 17.7 0.00 0.00 0.00 85 1003.0
20260508031946 6 203 8.0 17.7 0.00 0.00 0.00 84 1003.1
20260508031835 6 203 9.7 17.7 0.00 0.00 0.00 84 1003.0
20260508031750 6 225 8.0 17.7 0.00 0.00 0.00 84 1002.8
20260508031723 6 203 8.0 17.7 0.00 0.00 0.00 84 1002.9
20260508031459 6 203 8.0 17.7 0.00 0.00 0.00 84 1002.7
20260508031352 6 225 11.3 17.7 0.00 0.00 0.00 84 1002.8
20260508031235 6 225 11.3 17.7 0.00 0.00 0.00 83 1002.9
20260508031216 6 225 12.9 17.7 0.00 0.00 0.00 83 1002.9
20260508031022 6 225 12.9 17.7 0.00 0.00 0.00 83 1002.8
20260508030910 6 225 12.9 17.7 0.00 0.00 0.00 83 1002.8
20260508030755 6 203 12.9 17.7 0.00 0.00 0.00 83 1002.8
20260508030646 6 203 12.9 17.7 0.00 0.00 0.00 83 1002.8
20260508030435 6 225 9.7 14.5 0.00 0.00 0.00 85 1002.8
20260508030316 6 203 11.3 14.5 0.00 0.00 0.00 85 1002.7
20260508030208 6 203 11.3 14.5 0.00 0.00 0.00 85 1002.7
20260508030058 6 203 9.7 14.5 0.00 0.00 0.00 85 1002.8
20260508025953 6 203 11.3 14.5 0.00 0.00 0.13 85 1002.7
20260508025827 6 225 11.3 14.5 0.00 0.00 0.13 85 1002.6
20260508025723 6 203 11.3 14.5 0.00 0.00 0.13 85 1002.5
20260508025620 6 203 11.3 14.5 0.00 0.00 0.13 85 1002.7
20260508025509 6 203 9.7 14.5 0.00 0.00 0.13 85 1002.7
20260508025345 6 225 9.7 14.5 0.00 0.00 0.13 85 1002.7
20260508025243 6 203 11.3 14.5 0.00 0.00 0.13 85 1002.6
20260508025135 6 203 11.3 14.5 0.00 0.00 0.13 85 1002.6
20260508025025 6 203 9.7 12.9 0.00 0.00 0.13 86 1002.6
20260508024906 6 225 9.7 12.9 0.00 0.00 0.13 86 1002.5
20260508024804 6 203 8.0 11.3 0.00 0.00 0.13 86 1002.6
20260508024654 6 203 9.7 11.3 0.00 0.00 0.13 86 1002.6
20260508024543 6 225 8.0 11.3 0.00 0.00 0.13 86 1002.8
20260508024424 5 225 6.4 9.7 0.00 0.00 0.13 87 1002.6
20260508024208 5 203 6.4 6.4 0.00 0.00 0.13 87 1002.6
20260508024100 5 203 6.4 6.4 0.00 0.00 0.13 87 1002.6
20260508023832 5 203 6.4 6.4 0.00 0.00 0.13 86 1002.5
20260508023730 5 203 6.4 6.4 0.00 0.00 0.13 86 1002.5
20260508023620 5 225 6.4 6.4 0.00 0.00 0.13 86 1002.5
20260508023501 5 203 6.4 6.4 0.00 0.00 0.13 86 1002.5
20260508023350 5 225 6.4 6.4 0.00 0.00 0.13 86 1002.4
20260508023244 5 225 6.4 6.4 0.00 0.00 0.13 86 1002.4
20260508023133 5 203 6.4 6.4 0.00 0.00 0.13 86 1002.3
20260508023017 5 203 4.8 6.4 0.00 0.00 0.13 86 1002.4
20260508022913 5 203 4.8 6.4 0.00 0.00 0.13 86 1002.3
20260508022800 5 203 4.8 6.4 0.00 0.00 0.13 86 1002.2
20260508022659 5 203 4.8 6.4 0.00 0.00 0.13 86 1002.3
20260508022549 5 203 3.2 6.4 0.00 0.00 0.13 86 1002.2
20260508022431 5 203 3.2 6.4 0.00 0.00 0.13 85 1002.4
20260508022354 6 225 4.8 6.4 0.00 0.00 0.13 85 1002.3
20260508022213 6 225 4.8 6.4 0.00 0.00 0.13 86 1002.3
20260508022057 6 225 4.8 6.4 0.00 0.00 0.13 85 1002.3
20260508021945 6 203 3.2 6.4 0.00 0.00 0.13 85 1002.2
20260508021843 6 203 3.2 6.4 0.00 0.00 0.13 85 1002.3
20260508021732 6 203 3.2 6.4 0.00 0.00 0.13 85 1002.3
20260508021614 6 203 3.2 9.7 0.00 0.00 0.13 85 1002.2
20260508021251 6 225 4.8 9.7 0.00 0.00 0.13 84 1002.2
20260508021133 7 225 4.8 9.7 0.00 0.00 0.13 83 1002.3
20260508021025 7 203 4.8 9.7 0.00 0.00 0.13 83 1002.0
20260508020914 7 203 6.4 9.7 0.00 0.00 0.13 83 1002.2
20260508020806 7 203 6.4 9.7 0.00 0.00 0.13 83 1002.3
20260508020649 7 203 6.4 11.3 0.00 0.00 0.13 82 1002.3
20260508020546 7 203 6.4 11.3 0.00 0.00 0.13 82 1002.3
20260508020438 7 225 6.4 11.3 0.00 0.00 0.13 82 1002.4
20260508020323 7 225 6.4 11.3 0.00 0.00 0.13 82 1002.2
20260508020207 7 203 6.4 11.3 0.00 0.00 0.13 81 1002.5
20260508020057 7 203 6.4 11.3 0.00 0.00 0.13 81 1002.4
20260508015949 7 225 6.4 11.3 0.00 0.00 0.13 81 1002.4
20260508015841 7 203 6.4 11.3 0.00 0.00 0.13 81 1002.2
20260508015725 7 225 8.0 11.3 0.00 0.00 0.13 81 1002.3
20260508015619 7 203 6.4 9.7 0.00 0.00 0.13 81 1002.4
20260508015510 7 225 6.4 9.7 0.00 0.00 0.13 81 1002.5
20260508015435 7 225 6.4 9.7 0.00 0.00 0.13 81 1002.3
20260508015241 7 225 6.4 9.7 0.00 0.00 0.13 80 1002.5
20260508015133 8 248 6.4 9.7 0.00 0.00 0.13 81 1002.4
20260508015030 8 203 6.4 11.3 0.00 0.00 0.13 80 1002.4
20260508014951 8 203 6.4 11.3 0.00 0.00 0.13 80 1002.4
20260508014913 8 225 6.4 11.3 0.00 0.00 0.13 80 1002.4
20260508014653 8 225 6.4 12.9 0.00 0.00 0.13 79 1002.5
20260508014543 8 225 6.4 12.9 0.00 0.00 0.13 79 1002.6
20260508014433 8 225 6.4 12.9 0.00 0.00 0.13 78 1002.4
20260508014325 8 203 6.4 12.9 0.00 0.00 0.13 77 1002.3
20260508014211 9 203 6.4 12.9 0.00 0.00 0.13 77 1002.2
20260508014059 9 203 8.0 12.9 0.00 0.00 0.13 76 1002.3
20260508013950 9 203 6.4 12.9 0.00 0.00 0.13 76 1002.2
20260508013841 9 203 8.0 14.5 0.00 0.00 0.13 76 1002.3
20260508013728 9 203 9.7 14.5 0.00 0.00 0.13 76 1002.2
20260508013618 9 180 9.7 14.5 0.00 0.00 0.13 76 1002.2
20260508013508 9 203 9.7 14.5 0.00 0.00 0.13 75 1002.4
20260508013408 9 203 9.7 14.5 0.00 0.00 0.13 75 1002.3
20260508013341 9 203 8.0 14.5 0.00 0.00 0.13 75 1002.4
20260508013139 9 225 8.0 14.5 0.00 0.00 0.13 75 1002.2
20260508013029 10 203 9.7 14.5 0.00 0.00 0.13 75 1002.3
20260508012927 10 203 9.7 14.5 0.00 0.00 0.13 75 1002.3
20260508012851 10 203 9.7 14.5 0.00 0.00 0.13 74 1002.3
20260508012656 10 203 9.7 17.7 0.00 0.00 0.13 74 1002.3
20260508012545 10 203 8.0 17.7 0.00 0.00 0.13 74 1002.4
20260508012443 10 203 11.3 17.7 0.00 0.00 0.13 74 1002.4
20260508012323 10 203 8.0 17.7 0.00 0.00 0.13 74 1002.2
20260508012102 10 225 11.3 17.7 0.00 0.00 0.13 73 1002.3
20260508011954 10 203 12.9 17.7 0.00 0.00 0.13 73 1002.4
20260508011836 10 203 9.7 17.7 0.00 0.00 0.13 73 1002.3
20260508011735 10 203 12.9 17.7 0.00 0.00 0.13 72 1002.4
20260508011627 10 203 12.9 17.7 0.00 0.00 0.13 72 1002.4
20260508011544 10 225 12.9 17.7 0.00 0.00 0.13 71 1002.4
20260508011357 10 203 12.9 17.7 0.00 0.00 0.13 72 1002.3
20260508011249 11 203 11.3 17.7 0.00 0.00 0.13 72 1002.5
20260508011140 11 203 11.3 17.7 0.00 0.00 0.13 71 1002.3
20260508011037 11 203 11.3 17.7 0.00 0.00 0.13 71 1002.6
20260508010915 11 203 12.9 17.7 0.00 0.00 0.13 70 1002.4
20260508010831 11 203 12.9 17.7 0.00 0.00 0.13 71 1002.5
20260508010756 11 225 12.9 17.7 0.00 0.00 0.13 70 1002.4
20260508010553 11 225 12.9 17.7 0.00 0.00 0.13 70 1002.5
20260508010435 11 225 12.9 17.7 0.00 0.00 0.13 69 1002.5
20260508010325 11 203 12.9 17.7 0.00 0.00 0.13 69 1002.5
20260508010223 11 225 12.9 17.7 0.00 0.00 0.13 69 1002.6
20260508010107 11 180 12.9 17.7 0.00 0.00 0.13 69 1002.5
20260508005948 12 203 12.9 17.7 0.00 0.00 0.13 68 1002.6
20260508005839 12 203 12.9 17.7 0.00 0.00 0.13 68 1002.5
20260508005737 12 180 12.9 17.7 0.00 0.00 0.13 68 1002.6
20260508005651 12 180 12.9 17.7 0.00 0.00 0.13 68 1002.6
20260508002601 12 203 12.9 20.9 0.00 0.00 0.13 67 1002.4
20260508002452 12 203 12.9 20.9 0.00 0.00 0.13 66 1002.7
20260508002352 12 203 12.9 20.9 0.00 0.00 0.13 67 1002.5
20260508002228 12 203 14.5 20.9 0.00 0.00 0.13 66 1002.5
20260508002117 12 180 14.5 20.9 0.00 0.00 0.13 66 1002.5
20260508002015 12 203 12.9 20.9 0.00 0.00 0.13 66 1002.6
20260508001907 12 203 12.9 20.9 0.00 0.00 0.13 65 1002.5
20260508001746 12 203 14.5 20.9 0.00 0.00 0.13 65 1002.4
20260508001534 12 203 12.9 20.9 0.00 0.00 0.13 65 1002.6
20260508001423 12 203 12.9 20.9 0.00 0.00 0.13 64 1002.3
20260508001303 12 180 16.1 20.9 0.00 0.00 0.13 64 1002.4
20260508001203 12 203 14.5 22.5 0.00 0.00 0.13 64 1002.6
20260508001051 12 180 12.9 22.5 0.00 0.00 0.13 65 1002.5
20260508000822 12 203 16.1 24.1 0.00 0.00 0.13 63 1002.5
20260508000712 12 203 14.5 24.1 0.00 0.00 0.13 63 1002.6
20260508000610 12 203 14.5 24.1 0.00 0.00 0.13 63 1002.7
20260508000502 12 180 14.5 24.1 0.00 0.00 0.13 63 1002.6
20260508000342 12 203 14.5 24.1 0.00 0.00 0.13 63 1002.6
20260508000231 12 203 16.1 24.1 0.00 0.00 0.13 63 1002.6
20260508000139 12 203 14.5 24.1 0.00 0.00 0.13 63 1002.4
20260508000032 12 203 16.1 24.1 0.00 0.00 0.13 63 1002.6
20260507235902 12 203 17.7 24.1 0.00 0.00 0.13 62 1002.7
20260507235754 12 225 14.5 22.5 0.00 0.00 0.13 63 1002.5
20260507235640 12 180 14.5 20.9 0.00 0.00 0.13 63 1002.6
20260507235537 12 203 12.9 22.5 0.00 0.00 0.13 63 1002.5
20260507235421 12 203 12.9 24.1 0.00 0.00 0.13 64 1002.4
20260507235309 12 203 12.9 24.1 0.00 0.00 0.13 64 1002.5
20260507235159 12 180 12.9 24.1 0.00 0.00 0.13 63 1002.5
20260507234938 12 203 14.5 24.1 0.00 0.00 0.13 63 1002.4
20260507234830 12 203 12.9 24.1 0.00 0.00 0.13 63 1002.4
20260507234719 12 180 12.9 24.1 0.00 0.00 0.13 63 1002.6
20260507234609 13 203 16.1 24.1 0.00 0.00 0.13 62 1002.5
20260507234450 13 203 17.7 24.1 0.00 0.00 0.13 63 1002.6
20260507234349 13 203 16.1 22.5 0.00 0.00 0.13 62 1002.6
20260507234238 13 180 17.7 22.5 0.00 0.00 0.13 62 1002.6
20260507234203 13 180 16.1 22.5 0.00 0.00 0.13 62 1002.5
20260507234009 13 180 17.7 22.5 0.00 0.00 0.13 62 1002.6
20260507233901 13 180 16.1 22.5 0.00 0.00 0.13 62 1002.7
20260507233759 12 203 16.1 22.5 0.00 0.00 0.13 62 1002.6
20260507233650 12 203 12.9 22.5 0.00 0.00 0.13 62 1002.7
20260507233533 12 203 16.1 22.5 0.00 0.00 0.13 63 1002.7
20260507233420 12 180 12.9 20.9 0.00 0.00 0.13 64 1002.7
20260507233311 12 203 17.7 20.9 0.00 0.00 0.13 62 1002.6
20260507233202 12 225 12.9 17.7 0.00 0.00 0.13 64 1002.6
20260507233046 12 203 12.9 17.7 0.00 0.00 0.13 64 1002.6
20260507232943 12 203 12.9 17.7 0.00 0.00 0.13 65 1002.5
20260507232835 12 203 11.3 17.7 0.00 0.00 0.13 65 1002.6
20260507232723 12 180 12.9 17.7 0.00 0.00 0.13 65 1002.5
20260507232603 12 225 9.7 17.7 0.00 0.00 0.13 66 1002.6
20260507232346 12 203 11.3 14.5 0.00 0.00 0.13 66 1002.6
20260507232245 12 180 9.7 14.5 0.00 0.00 0.13 66 1002.6
20260507232126 12 225 9.7 14.5 0.00 0.00 0.13 67 1002.4
20260507232016 11 203 11.3 14.5 0.00 0.00 0.13 67 1002.5
20260507231907 11 203 11.3 14.5 0.00 0.00 0.13 67 1002.4
20260507231757 11 203 9.7 12.9 0.00 0.00 0.13 68 1002.5
20260507231647 11 203 6.4 12.9 0.00 0.00 0.13 68 1002.5
20260507231530 11 203 8.0 12.9 0.00 0.00 0.13 68 1002.5
20260507231426 11 180 8.0 11.3 0.00 0.00 0.13 68 1002.6
20260507231324 11 203 6.4 11.3 0.00 0.00 0.13 68 1002.6
20260507231156 11 203 6.4 11.3 0.00 0.00 0.13 68 1002.6
20260507231104 11 225 6.4 11.3 0.00 0.00 0.13 68 1002.5
20260507231037 11 203 6.4 11.3 0.00 0.00 0.13 68 1002.5
20260507230834 11 203 6.4 11.3 0.00 0.00 0.13 68 1002.6
20260507230731 11 203 6.4 11.3 0.00 0.00 0.13 68 1002.5
20260507230609 12 203 6.4 11.3 0.00 0.00 0.13 68 1002.5
20260507230459 12 203 8.0 11.3 0.00 0.00 0.13 68 1002.7
20260507230413 12 203 6.4 11.3 0.00 0.00 0.13 67 1002.4
20260507230242 12 203 8.0 12.9 0.00 0.00 0.13 67 1002.4
20260507230127 12 203 8.0 12.9 0.00 0.00 0.13 66 1002.3
20260507230017 12 203 8.0 14.5 0.00 0.00 0.13 66 1002.5
20260507225756 12 203 6.4 17.7 0.00 0.00 0.13 66 1002.4
20260507225646 12 180 6.4 17.7 0.00 0.00 0.13 66 1002.2
20260507225537 12 203 8.0 17.7 0.00 0.00 0.13 65 1002.3
20260507225435 12 203 8.0 20.9 0.00 0.00 0.13 65 1002.4
20260507225312 12 203 9.7 20.9 0.00 0.00 0.13 64 1002.4
20260507225204 12 180 8.0 20.9 0.00 0.00 0.13 64 1002.2
20260507225054 12 203 12.9 20.9 0.00 0.00 0.13 64 1002.2
20260507224945 13 203 9.7 20.9 0.00 0.00 0.13 64 1002.3
20260507224831 13 203 12.9 20.9 0.00 0.00 0.13 63 1002.2
20260507224723 13 203 9.7 20.9 0.00 0.00 0.13 63 1002.4
20260507224612 13 203 9.7 22.5 0.00 0.00 0.13 63 1002.2
20260507224509 13 203 12.9 22.5 0.00 0.00 0.13 61 1002.2
20260507224239 13 203 12.9 22.5 0.00 0.00 0.13 62 1002.2
20260507224130 13 203 12.9 22.5 0.00 0.00 0.13 61 1002.2
20260507224023 13 203 11.3 22.5 0.00 0.00 0.13 61 1002.2
20260507223904 13 203 12.9 22.5 0.00 0.00 0.13 61 1002.1
20260507223759 13 180 16.1 22.5 0.00 0.00 0.13 60 1002.1
20260507223651 13 203 14.5 22.5 0.00 0.00 0.13 60 1002.1
20260507223546 13 203 16.1 20.9 0.00 0.00 0.13 60 1002.1
20260507223427 13 203 12.9 20.9 0.00 0.00 0.13 61 1001.9
20260507223207 13 203 16.1 25.7 0.00 0.00 0.13 59 1002.2
20260507223100 13 180 14.5 25.7 0.00 0.00 0.13 60 1002.1
20260507222940 13 203 16.1 25.7 0.00 0.00 0.13 60 1001.9
20260507222840 13 180 11.3 25.7 0.00 0.00 0.13 61 1002.2
20260507222759 13 180 14.5 25.7 0.00 0.00 0.13 60 1001.9
20260507222621 13 203 16.1 25.7 0.00 0.00 0.13 60 1001.9
20260507222502 13 203 14.5 25.7 0.00 0.00 0.13 60 1002.0
20260507222353 13 203 17.7 25.7 0.00 0.00 0.13 59 1001.9
20260507222242 13 203 14.5 25.7 0.00 0.00 0.13 59 1001.6
20260507222134 14 203 17.7 25.7 0.00 0.00 0.13 59 1001.8
20260507222021 14 203 17.7 25.7 0.00 0.00 0.13 59 1001.7
20260507221911 14 225 14.5 25.7 0.00 0.00 0.13 59 1001.8
20260507221809 14 203 12.9 25.7 0.00 0.00 0.13 60 1001.6
20260507221659 14 158 16.1 25.7 0.00 0.00 0.13 59 1001.7
20260507221533 14 180 17.7 25.7 0.00 0.00 0.13 58 1001.4
20260507221426 14 180 14.5 25.7 0.00 0.00 0.13 59 1001.5
20260507221324 14 225 17.7 25.7 0.00 0.00 0.13 59 1001.5
20260507221211 14 203 19.3 25.7 0.00 0.00 0.13 58 1001.5
20260507221059 14 203 17.7 25.7 0.00 0.00 0.13 58 1001.5
20260507220948 14 248 16.1 25.7 0.00 0.00 0.13 59 1001.3
20260507220913 14 203 17.7 25.7 0.00 0.00 0.13 58 1001.2
20260507220844 14 180 17.7 32.2 0.00 0.00 0.13 58 1001.5
20260507220613 14 203 14.5 32.2 0.00 0.00 0.13 58 1001.5
20260507220513 14 203 16.1 32.2 0.00 0.00 0.13 58 1001.4
20260507220357 14 180 17.7 32.2 0.00 0.00 0.13 58 1001.5
20260507220249 14 180 19.3 32.2 0.00 0.00 0.13 57 1001.5
20260507220127 14 203 17.7 32.2 0.00 0.00 0.13 58 1001.3
20260507220027 14 180 16.1 32.2 0.00 0.00 0.13 58 1001.3
20260507215916 14 180 19.3 35.4 0.00 0.00 0.13 57 1001.2
20260507215806 14 203 24.1 35.4 0.00 0.00 0.13 57 1001.1
20260507215646 14 180 17.7 35.4 0.00 0.00 0.13 58 1001.0
20260507215540 14 113 22.5 35.4 0.00 0.00 0.13 57 1001.0
20260507215429 14 180 17.7 35.4 0.00 0.00 0.13 58 1001.0
20260507215330 14 203 16.1 35.4 0.00 0.00 0.13 58 1001.0
20260507215209 14 158 19.3 35.4 0.00 0.00 0.13 58 1000.9
20260507215057 14 203 19.3 35.4 0.00 0.00 0.13 58 1001.0
20260507214949 14 180 22.5 33.8 0.00 0.00 0.13 57 1000.8
20260507214839 14 203 17.7 29.0 0.00 0.00 0.13 58 1001.1
20260507214723 14 203 16.1 29.0 0.00 0.00 0.13 59 1000.8
20260507214613 14 180 19.3 29.0 0.00 0.00 0.13 58 1000.8
20260507214512 14 203 17.7 29.0 0.00 0.00 0.13 58 1000.5
20260507214402 14 180 19.3 32.2 0.00 0.00 0.13 58 1000.7
20260507214243 14 180 17.7 32.2 0.00 0.00 0.13 59 1000.6
20260507214031 14 203 22.5 32.2 0.00 0.00 0.13 58 1000.6
20260507213915 14 203 17.7 32.2 0.00 0.00 0.13 58 1000.6
20260507213804 14 180 20.9 32.2 0.00 0.00 0.13 58 1000.6
20260507213654 14 203 19.3 32.2 0.00 0.00 0.13 59 1000.5
20260507213542 14 203 17.7 32.2 0.00 0.00 0.13 59 1000.6
20260507213434 14 203 22.5 32.2 0.00 0.00 0.13 59 1000.5
20260507213316 14 225 20.9 32.2 0.00 0.00 0.13 58 1000.4
20260507213208 14 180 16.1 24.1 0.00 0.00 0.13 58 1000.4
20260507213106 14 203 17.7 24.1 0.00 0.00 0.13 59 1000.4
20260507212956 14 203 17.7 24.1 0.00 0.00 0.13 59 1000.5
20260507212838 14 180 16.1 24.1 0.00 0.00 0.13 59 1000.4
20260507212726 14 203 14.5 27.4 0.00 0.00 0.13 60 1000.4
20260507212624 14 158 12.9 27.4 0.00 0.00 0.13 60 1000.4
20260507212510 14 203 19.3 27.4 0.00 0.00 0.13 59 1000.4
20260507212354 14 203 16.1 27.4 0.00 0.00 0.13 59 1000.5
20260507212244 14 180 16.1 27.4 0.00 0.00 0.13 59 1000.4
20260507212143 15 203 14.5 27.4 0.00 0.00 0.13 59 1000.4
20260507212032 15 203 14.5 27.4 0.00 0.00 0.13 59 1000.4
20260507211916 15 180 17.7 27.4 0.00 0.00 0.13 59 1000.5
20260507211802 15 203 16.1 27.4 0.00 0.00 0.13 59 1000.3
20260507211718 15 158 19.3 25.7 0.00 0.00 0.13 59 1000.2
20260507211645 15 225 17.7 24.1 0.00 0.00 0.13 59 1000.2
20260507202427 15 180 27.4 37.0 0.00 0.00 0.13 56 1000.7
20260507202307 15 180 27.4 37.0 0.00 0.00 0.13 57 1000.6
20260507202203 15 180 24.1 37.0 0.00 0.00 0.13 57 1000.5
20260507202046 15 203 20.9 38.6 0.00 0.00 0.13 58 1000.7
20260507201932 15 203 20.9 38.6 0.00 0.00 0.13 58 1000.5
20260507201824 15 180 25.7 38.6 0.00 0.00 0.13 57 1000.6
20260507201714 15 180 24.1 38.6 0.00 0.00 0.13 57 1000.6
20260507201558 15 158 22.5 38.6 0.00 0.00 0.13 57 1000.5
20260507201448 15 203 19.3 40.2 0.00 0.00 0.13 58 1000.6
20260507201348 15 203 24.1 40.2 0.00 0.00 0.13 57 1000.6
20260507201235 15 180 27.4 43.5 0.00 0.00 0.13 57 1000.5
20260507201117 15 180 27.4 43.5 0.00 0.00 0.13 56 1000.6
20260507200904 15 158 25.7 43.5 0.00 0.00 0.13 56 1000.6
20260507200754 15 203 24.1 43.5 0.00 0.00 0.13 58 1000.6
20260507200638 15 203 27.4 43.5 0.00 0.00 0.13 58 1000.6
20260507200528 15 225 24.1 43.5 0.00 0.00 0.13 57 1000.8
20260507200418 15 180 30.6 43.5 0.00 0.00 0.13 57 1000.6
20260507200314 15 180 30.6 43.5 0.00 0.00 0.13 56 1000.6
20260507200156 15 158 33.8 43.5 0.00 0.00 0.13 56 1000.6
20260507200048 15 180 33.8 43.5 0.00 0.00 0.13 56 1000.5
20260507195942 15 180 33.8 43.5 0.00 0.00 0.13 56 1000.6
20260507195833 15 225 24.1 43.5 0.00 0.00 0.13 56 1000.7
20260507195708 15 203 29.0 43.5 0.00 0.00 0.13 56 1000.6
20260507195606 15 180 33.8 43.5 0.00 0.00 0.13 55 1000.4
20260507195456 15 180 33.8 43.5 0.00 0.00 0.13 55 1000.3